#timestamp,LO_Frequency,Hit,StdDev 
1526522415.1,286047002.3,N
1526522435.9,286047000.3,N
1526522455.7,286047002.8,N
1526522475.6,286047000.2,N
1526522495.4,286046999.7,N
1526522515.2,286047000.9,N
1526522535.1,286047000.4,N
1526522536.0,286047000.4,N
1526522555.8,286047000.5,N
1526522575.7,286047002.4,N
1526522595.5,286046999.7,N
1526522615.3,286047002.0,N
1526522635.2,286046999.8,N
1526522655.0,286047000.0,N
1526522655.9,286047000.0,N
1526522675.7,286046999.9,N
1526522695.6,286047004.4,N
1526522715.4,286046999.7,N
1526522735.3,286046999.8,N
1526522755.1,286046998.3,N
1526522756.0,286046998.3,N
1526522775.8,286046999.4,N
1526522795.7,286046998.5,N
1526522815.5,286047000.6,N
1526522835.3,286047002.6,N
1526522855.2,286047002.7,N
1526522875.0,286047005.9,Y
1526522875.9,286047005.9,P
1526522895.8,286047003.4,N
1526522915.6,286047001.6,N
1526522935.4,286047003.7,N
1526522955.3,286047004.7,N
1526522975.1,286047003.0,N
1526522995.9,286047005.7,Y
1526523015.7,286046999.7,P
1526523035.5,286047004.7,N
1526523055.4,286047003.5,N
1526523075.2,286047003.1,N
1526523095.0,286047002.9,N
1526523095.9,286047011.9,Y
1526523115.8,286047004.0,P
1526523135.6,286047001.3,N
1526523155.5,286047002.6,N
1526523175.3,286047002.1,N
1526523195.1,286047001.4,N
1526523215.9,286047004.3,Y
1526523235.7,286047002.3,P
1526523255.6,286047003.8,P
1526523275.4,286047003.1,P
1526523295.2,286047003.9,Y
1526523315.1,286046999.9,P
1526523316.0,286046999.9,N
1526523335.8,286047000.2,N
1526523355.6,286046998.3,N
1526523375.5,286046997.7,N
1526523395.3,286046995.1,N
1526523415.2,286046995.5,N
1526523435.9,286046995.6,N
1526523455.7,286046993.8,N
1526523475.6,286046997.3,N
1526523495.4,286046997.5,N
1526523515.2,286046994.5,N
1526523535.1,286046993.3,N
1526523536.0,286046993.3,N
1526523555.8,286046995.3,N
1526523575.7,286046995.7,N
1526523595.5,286046998.8,N
1526523615.3,286046998.9,N
1526523635.2,286046995.2,N
1526523655.0,286046997.9,N
1526523655.9,286046997.9,N
1526523675.8,286046997.6,N
1526523695.6,286046993.4,N
1526523715.4,286046995.9,N
1526523735.3,286046994.7,N
1526523755.1,286046994.7,N
1526523775.8,286046996.3,N
1526523795.7,286046995.9,N
1526523815.5,286046995.2,N
1526523835.4,286046997.0,N
1526523855.2,286046996.1,N
1526523875.0,286046994.5,N
1526523875.9,286046994.5,Y
1526523895.8,286046996.3,P
1526523915.6,286046995.1,P
1526523935.4,286046997.6,P
1526523955.3,286046997.3,Y
1526523975.1,286047000.1,P
1526523995.9,286047002.7,N
1526524015.7,286046999.9,N
1526524035.5,286046999.9,N
1526524055.4,286047000.5,N
1526524075.2,286047002.8,N
1526524095.1,286047001.6,N
1526524096.0,286047001.6,N
1526524115.8,286047004.3,N
1526524135.7,286047004.4,N
1526524155.5,286047002.1,N
1526524175.3,286047002.1,N
1526524195.2,286046999.8,N
1526524215.9,286047002.7,N
1526524235.7,286047000.5,N
1526524255.6,286047000.4,N
1526524275.4,286047004.2,N
1526524295.2,286046999.9,N
1526524315.1,286047002.6,N
1526524316.0,286047002.6,N
1526524335.8,286047001.4,N
1526524355.7,286047002.9,N
1526524375.5,286047001.3,N
1526524395.3,286047004.4,N
1526524415.2,286047003.4,N
1526524435.0,286047003.2,N
1526524435.9,286047003.2,N
1526524455.8,286046999.8,N
1526524475.6,286047001.4,N
1526524495.4,286047000.8,N
1526524515.3,286047000.6,N
1526524535.1,286046998.9,N
1526524555.8,286047000.0,N
1526524575.7,286047001.0,N
1526524595.5,286047000.5,N
1526524615.4,286046999.0,N
1526524635.2,286046999.0,N
1526524655.0,286046997.7,N
1526524655.9,286046997.7,N
1526524675.8,286046998.4,N
1526524695.6,286047000.4,N
1526524715.4,286046999.8,N
1526524735.3,286047002.0,N
1526524755.1,286046999.8,N
1526524775.9,286047000.6,N
1526524795.7,286047003.9,N
1526524815.5,286046999.8,N
1526524835.4,286047001.9,N
1526524855.2,286047000.1,N
1526524875.0,286047000.5,N
1526524876.0,286047000.5,N
1526524895.8,286047002.4,N
1526524915.6,286047000.8,N
1526524935.5,286047000.4,N
1526524955.3,286046998.5,N
1526524975.1,286046998.1,N
1526524995.9,286047000.7,N
1526525015.7,286047000.8,N
1526525035.6,286046998.7,N
1526525055.4,286047001.2,N
1526525075.2,286047001.1,N
1526525095.1,286047001.0,N
1526525096.0,286047001.0,N
1526525115.8,286046998.5,N
1526525135.6,286046997.4,N
1526525155.5,286046994.9,Y
1526525175.3,286046996.4,P
1526525195.2,286046994.1,P
1526525215.9,286046994.4,N
1526525235.7,286046992.0,Y
1526525255.6,286046995.8,P
1526525275.4,286046995.7,P
1526525295.2,286046995.1,P
1526525315.1,286046996.3,Y
1526525316.0,286046996.3,P
1526525335.8,286047001.1,P
1526525355.7,286046998.2,N
1526525375.5,286047000.3,N
1526525395.3,286047001.0,N
1526525415.2,286047002.5,N
1526525435.0,286046998.7,N
1526525435.9,286046998.7,N
1526525455.8,286046998.8,N
1526525475.6,286046999.5,N
1526525495.4,286046999.3,N
1526525515.3,286046996.5,N
1526525535.1,286046997.2,N
1526525555.8,286046999.6,N
1526525575.7,286047000.3,N
1526525595.5,286047000.1,N
1526525615.4,286047000.6,N
1526525635.2,286047000.6,N
1526525655.0,286047002.0,N
1526525655.9,286047002.0,N
1526525675.8,286046999.7,N
1526525695.6,286047000.5,N
1526525715.5,286047002.2,N
1526525735.3,286047002.5,N
1526525755.1,286047001.8,N
1526525775.9,286047001.3,N
1526525795.7,286047002.1,N
1526525815.5,286047002.6,N
1526525835.4,286047001.4,N
1526525855.2,286047002.3,N
1526525875.1,286047001.8,N
1526525876.0,286047001.8,N
1526525895.8,286047004.0,N
1526525915.6,286047004.2,N
1526525935.5,286047001.9,N
1526525955.3,286047002.8,N
1526525975.1,286047002.6,N
1526525995.9,286047002.8,N
